Location: Unspecified
(0.0000°N, 0.0000°E)
Time: 19:32:20
(UTC+00:00)

Vanguard 2 Rocket - Pass Details

Date: 16 December 2017
Orbit: 553 x 3327 km, 32.9° (Epoch: 17 June)

Event Time Altitude Azimuth Distance (km) Brightness Sun altitude
Rises 06:13:38 0° 265° (W) 6,229 10.6 4.1°
Reaches altitude 10° 06:21:24 10° 243° (WSW) 4,496 10.1 5.9°
Maximum altitude 06:26:22 13° 218° (SW) 3,696 9.9 7.1°
Drops below altitude 10° 06:30:26 10° 191° (S) 3,501 10.1 8.0°
Sets 06:34:57 0° 164° (SSE) 3,940 10.8 9.0°
